Everett, WA
on Monday, November 12, 2012

Monday
Previous Day Next Day
Daily Summary
 ActualAverageRecord
Temperature
Mean Temperature °F °F  
Max Temperature 48°F 51°F 64°F (1990)
Min Temperature 41°F 39°F 10°F (1955)
Degree Days
Heating Degree Days 20    
Moisture
Dew Point 43°F   
Average Humidity 91    
Maximum Humidity 93    
Minimum Humidity 87    
Precipitation
Precipitation 0.06 in in in ()
Wind
Wind Speed 7 mph   
Max Wind Speed 13 mph   
Max Gust Speed 21 mph   
Visibility 6 miles   
Events Rain   
Averages and records for this station are not official NWS values.
Key: T is trace of precipitation, MM is missing value
Source: NWS Daily Summary
Seasonal Weather Averages
Time(PST)TemperatureDew PointHumidity Pressure Visibility Wind DirectionWind SpeedGust SpeedPrecipitationEvents Conditions
12:04 AM 41.0°F 39.2°F 93% 30.08 in 4.0 miles SE 4.6 mph - 0.00 in Rain Light Rain
12:20 AM 41.0°F 39.2°F 93% 30.08 in 5.0 miles ESE 6.9 mph - 0.01 in Rain Light Rain
12:32 AM 42.8°F 39.2°F 87% 30.08 in 4.0 miles Variable 5.8 mph - 0.01 in   Overcast
12:41 AM 42.8°F 39.2°F 87% 30.08 in 4.0 miles Variable 6.9 mph - N/A   Overcast
12:53 AM 42.1°F 39.0°F 89% 30.09 in 4.0 miles ESE 8.1 mph - 0.01 in   Overcast
1:53 AM 42.1°F 39.9°F 92% 30.09 in 5.0 miles SSE 11.5 mph 20.7 mph N/A   Overcast
2:53 AM 43.0°F 41.0°F 93% 30.08 in 8.0 miles Variable 6.9 mph - N/A   Overcast
3:20 AM 42.8°F 39.2°F 87% 30.07 in 1.8 miles ESE 9.2 mph - N/A   Overcast
3:35 AM 42.8°F 41.0°F 93% 30.07 in 3.0 miles SSE 11.5 mph 19.6 mph N/A   Overcast
3:53 AM 44.1°F 42.1°F 93% 30.08 in 9.0 miles Variable 5.8 mph 16.1 mph N/A   Overcast
4:46 AM 44.6°F 42.8°F 93% 30.07 in 10.0 miles SSE 12.7 mph - N/A   Overcast
4:53 AM 45.0°F 42.1°F 90% 30.08 in 10.0 miles SSE 10.4 mph - N/A   Overcast
5:10 AM 44.6°F 42.8°F 93% 30.08 in 10.0 miles SSE 9.2 mph - N/A   Overcast
5:43 AM 44.6°F 42.8°F 93% 30.08 in 10.0 miles Variable 6.9 mph - N/A   Overcast
5:53 AM 44.1°F 41.0°F 89% 30.09 in 10.0 miles SSE 6.9 mph - N/A   Overcast
6:04 AM 44.6°F 41.0°F 87% 30.08 in 10.0 miles SSE 10.4 mph - N/A   Overcast
6:53 AM 45.0°F 42.1°F 90% 30.10 in 5.0 miles SE 4.6 mph - N/A   Overcast
7:20 AM 42.8°F 39.2°F 87% 30.10 in 3.0 miles ESE 5.8 mph - N/A   Overcast
7:33 AM 42.8°F 39.2°F 87% 30.10 in 2.5 miles Calm Calm - N/A   Overcast
7:53 AM 43.0°F 39.9°F 89% 30.12 in 3.0 miles SSE 5.8 mph - N/A   Overcast
8:04 AM 42.8°F 41.0°F 93% 30.11 in 2.0 miles SSE 8.1 mph - N/A   Overcast
8:15 AM 42.8°F 41.0°F 93% 30.11 in 1.8 miles SE 4.6 mph - N/A   Overcast
8:33 AM 42.8°F 41.0°F 93% 30.11 in 2.0 miles Variable 3.5 mph - N/A   Overcast
8:53 AM 43.0°F 41.0°F 93% 30.13 in 2.0 miles Variable 3.5 mph - N/A   Overcast
9:00 AM 42.8°F 41.0°F 93% 30.12 in 1.0 miles Variable 4.6 mph - N/A   Overcast
9:53 AM 43.0°F 41.0°F 93% 30.14 in 1.0 miles ESE 8.1 mph - 0.01 in   Overcast
10:53 AM 45.0°F 42.1°F 90% 30.15 in 1.0 miles ESE 5.8 mph - N/A   Overcast
11:53 AM 45.0°F 43.0°F 93% 30.15 in 1.2 miles Variable 3.5 mph - 0.00 in Rain Light Rain
12:53 PM 46.0°F 44.1°F 93% 30.16 in 1.5 miles SSE 5.8 mph - 0.03 in Rain Light Rain
1:53 PM 46.9°F 44.1°F 90% 30.17 in 2.0 miles SSE 4.6 mph - 0.01 in   Overcast
2:53 PM 46.9°F 45.0°F 93% 30.16 in 1.0 miles Calm Calm - N/A   Overcast
3:53 PM 48.0°F 45.0°F 89% 30.17 in 2.0 miles SSE 4.6 mph - N/A   Overcast
4:00 PM 48.2°F 44.6°F 87% 30.16 in 8.0 miles Calm Calm - N/A   Overcast
4:11 PM 48.2°F 46.4°F 93% 30.16 in 7.0 miles Variable 3.5 mph - N/A   Overcast
4:53 PM 48.0°F 46.0°F 93% 30.17 in 8.0 miles SSE 4.6 mph - N/A   Overcast
4:57 PM 48.2°F 46.4°F 93% 30.16 in 9.0 miles Variable 3.5 mph - N/A   Overcast
5:37 PM 46.4°F 44.6°F 93% 30.16 in 10.0 miles Variable 4.6 mph - N/A   Overcast
5:53 PM 46.9°F 45.0°F 93% 30.18 in 10.0 miles Variable 3.5 mph - N/A   Overcast
6:33 PM 46.4°F 44.6°F 93% 30.17 in 10.0 miles SE 3.5 mph - N/A   Overcast
6:53 PM 48.0°F 45.0°F 89% 30.18 in 10.0 miles SE 3.5 mph - N/A   Overcast
7:22 PM 48.2°F 44.6°F 87% 30.17 in 10.0 miles SSE 8.1 mph - N/A   Overcast
7:53 PM 48.0°F 45.0°F 89% 30.19 in 10.0 miles SSE 9.2 mph - N/A   Overcast
8:53 PM 48.0°F 46.0°F 93% 30.19 in 10.0 miles South 9.2 mph - N/A   Overcast
9:00 PM 48.2°F 46.4°F 93% 30.17 in 10.0 miles South 9.2 mph - N/A   Mostly Cloudy
9:53 PM 48.9°F 46.0°F 90% 30.19 in 10.0 miles South 8.1 mph - N/A   Overcast
10:53 PM 48.9°F 46.0°F 90% 30.20 in 10.0 miles South 11.5 mph 17.3 mph N/A   Overcast
11:53 PM 48.9°F 46.0°F 90% 30.21 in 10.0 miles South 12.7 mph 17.3 mph N/A   Overcast
Moon Phase
Nov. 12 Nov. 13 Nov. 20 Nov. 28 Dec. 06
Sunrise:07:11 AM (PST) Moon Rise:05:40 AM (PST)11/12
Sunset:04:34 PM (PST) Moon Set:03:45 PM (PST)11/12

Copyright © 2014 The Weather Underground, Inc.